Location: ????? ????
(37.9717°N, 23.4051°E)
Time: 04:50:31
(UTC+00:00)

Cosmos 1825 - Pass Details

Date: 18 April 2024
Orbit: 443 x 446 km, 82.5° (Epoch: 20 May)

Event Time Altitude Azimuth Distance (km) Brightness Sun altitude
Rises 17:50:34 0° 344° (NNW) 2,444 6.2 -9.3°
Reaches altitude 10° 17:52:43 10° 336° (NNW) 1,569 5.4 -9.6°
Maximum altitude 17:55:54 38° 267° (W) 700 3.5 -10.2°
Drops below altitude 10° 17:59:04 10° 198° (SSW) 1,559 4.6 -10.8°
Sets 18:01:12 0° 190° (S) 2,425 5.5 -11.2°
